Airport Information

KTIW - Tacoma Narrows Airport

KTIW 251053Z AUTO VRB05KT 10SM CLR 07/04 A3004 RMK AO2 SLP172 T00670039 $


  • General Information

  • Coordinates: N 47°16'4"/ W 122°34'41"
  • Location: N/A
  • Surveyed Elevation: 294 MSL

Operations

Flow Name Active Runways Conditions

Green background denotes normal operations.


Common Frequencies

Callsign Frequency Position Name

More at the Document Center


Charts